• In Hungary
  • List of Countries
  • For 7 days
  • Water Temperature
  • Satellite Maps
  • Weather Map
  • News
  • Weather Widgets
  • user-avatar
    Login

    Hourly Weather Puerto Cabezas

    Today, 24 September, Monday

    Time Temperature Precipitation Wind Pressure Humidity
    00:00 +27°C° 0 mm 4 mps 757 mmHg 89%
    01:00 +27°C° 0 mm 4 mps 757 mmHg 89%
    02:00 +27°C° 0 mm 3 mps 757 mmHg 90%
    03:00 +27°C° 0 mm 3 mps 756 mmHg 90%
    04:00 +27°C° 0.1 mm 3 mps 757 mmHg 90%
    05:00 +27°C° 0.1 mm 3 mps 757 mmHg 90%
    06:00 +27°C° 0.1 mm 3 mps 757 mmHg 90%
    07:00 +28°C° 0.1 mm 4 mps 757 mmHg 82%
    08:00 +30°C° 0.1 mm 4 mps 758 mmHg 75%
    09:00 +33°C° 0.1 mm 4 mps 758 mmHg 67%
    10:00 +33°C° 0 mm 4 mps 758 mmHg 64%
    11:00 +34°C° 0 mm 4 mps 757 mmHg 60%
    12:00 +35°C° 0 mm 5 mps 757 mmHg 57%
    13:00 +35°C° 0 mm 5 mps 757 mmHg 58%
    14:00 +34°C° 0 mm 5 mps 756 mmHg 60%
    15:00 +34°C° 0 mm 5 mps 756 mmHg 61%
    16:00 +32°C° 0 mm 4 mps 756 mmHg 68%
    17:00 +30°C° 0 mm 4 mps 756 mmHg 75%
    18:00 +28°C° 0 mm 4 mps 756 mmHg 81%
    19:00 +28°C° 0.2 mm 4 mps 757 mmHg 84%
    20:00 +28°C° 0.2 mm 4 mps 757 mmHg 86%
    21:00 +27°C° 0.2 mm 4 mps 758 mmHg 88%
    22:00 +27°C° 0.3 mm 4 mps 758 mmHg 90%
    23:00 +27°C° 0.3 mm 4 mps 758 mmHg 91%

    Tomorrow, 25 September, Tuesday

    Time Temperature Precipitation Wind Pressure Humidity
    00:00 +27°C° 0.3 mm 4 mps 758 mmHg 92%
    01:00 +27°C° 0.9 mm 4 mps 757 mmHg 93%
    02:00 +27°C° 0.9 mm 4 mps 757 mmHg 94%
    03:00 +26°C° 0.9 mm 4 mps 756 mmHg 95%
    04:00 +27°C° 1.6 mm 4 mps 757 mmHg 95%
    05:00 +27°C° 1.6 mm 4 mps 757 mmHg 95%
    06:00 +27°C° 1.6 mm 4 mps 757 mmHg 94%
    07:00 +28°C° 1 mm 4 mps 757 mmHg 92%
    08:00 +29°C° 1 mm 4 mps 758 mmHg 90%
    09:00 +29°C° 1 mm 5 mps 758 mmHg 87%
    10:00 +30°C° 1.2 mm 5 mps 758 mmHg 87%
    11:00 +30°C° 1.2 mm 5 mps 758 mmHg 87%
    12:00 +30°C° 1.2 mm 4 mps 758 mmHg 87%
    13:00 +29°C° 1.9 mm 4 mps 757 mmHg 88%
    14:00 +29°C° 1.9 mm 4 mps 757 mmHg 88%
    15:00 +29°C° 1.9 mm 4 mps 756 mmHg 89%
    16:00 +28°C° 0.7 mm 4 mps 756 mmHg 90%
    17:00 +28°C° 0.7 mm 4 mps 756 mmHg 92%
    18:00 +27°C° 0.7 mm 4 mps 756 mmHg 93%
    19:00 +27°C° 1.2 mm 4 mps 757 mmHg 93%
    20:00 +27°C° 1.2 mm 4 mps 757 mmHg 93%
    21:00 +27°C° 1.2 mm 4 mps 758 mmHg 93%
    22:00 +27°C° 0.9 mm 4 mps 758 mmHg 93%
    23:00 +27°C° 0.9 mm 4 mps 758 mmHg 93%

    Day after tomorrow, 26 September, Wednesday

    Time Temperature Precipitation Wind Pressure Humidity
    00:00 +27°C° 0.9 mm 4 mps 757 mmHg 93%
    01:00 +27°C° 0.9 mm 4 mps 757 mmHg 93%
    02:00 +27°C° 0.9 mm 4 mps 756 mmHg 93%
    03:00 +27°C° 0.9 mm 4 mps 756 mmHg 93%
    04:00 +27°C° 0.7 mm 4 mps 756 mmHg 93%
    05:00 +27°C° 0.7 mm 4 mps 757 mmHg 93%
    06:00 +27°C° 0.7 mm 4 mps 757 mmHg 93%
    07:00 +28°C° 0.6 mm 4 mps 757 mmHg 90%
    08:00 +29°C° 0.6 mm 4 mps 758 mmHg 87%
    09:00 +30°C° 0.6 mm 5 mps 759 mmHg 84%
    10:00 +30°C° 1.3 mm 4 mps 758 mmHg 84%
    11:00 +30°C° 1.3 mm 4 mps 758 mmHg 85%
    12:00 +30°C° 1.3 mm 4 mps 757 mmHg 86%
    13:00 +30°C° 1.1 mm 4 mps 757 mmHg 86%
    14:00 +30°C° 1.1 mm 4 mps 756 mmHg 87%
    15:00 +29°C° 1.1 mm 4 mps 755 mmHg 88%
    16:00 +29°C° 0.3 mm 4 mps 756 mmHg 89%
    17:00 +28°C° 0.3 mm 4 mps 756 mmHg 91%
    18:00 +27°C° 0.3 mm 4 mps 756 mmHg 93%
    19:00 +27°C° 0.4 mm 4 mps 757 mmHg 93%
    20:00 +27°C° 0.4 mm 4 mps 757 mmHg 93%
    21:00 +27°C° 0.4 mm 3 mps 758 mmHg 94%
    22:00 +27°C° 0.4 mm 3 mps 757 mmHg 94%
    23:00 +27°C° 0.4 mm 3 mps 757 mmHg 94%

    27 September, Thursday

    Time Temperature Precipitation Wind Pressure Humidity
    00:00 +27°C° 0.4 mm 3 mps 757 mmHg 94%
    01:00 +27°C° 0.4 mm 3 mps 756 mmHg 94%
    02:00 +27°C° 0.4 mm 4 mps 756 mmHg 94%
    03:00 +27°C° 0.4 mm 4 mps 756 mmHg 94%
    04:00 +27°C° 0.2 mm 4 mps 756 mmHg 94%
    05:00 +27°C° 0.2 mm 4 mps 756 mmHg 94%
    06:00 +27°C° 0.2 mm 4 mps 757 mmHg 94%
    07:00 +28°C° 0.4 mm 5 mps 757 mmHg 88%
    08:00 +30°C° 0.4 mm 5 mps 758 mmHg 82%
    09:00 +32°C° 0.4 mm 5 mps 758 mmHg 76%
    10:00 +33°C° 0.3 mm 5 mps 758 mmHg 72%
    11:00 +34°C° 0.3 mm 5 mps 757 mmHg 68%
    12:00 +34°C° 0.3 mm 5 mps 757 mmHg 64%
    13:00 +34°C° 0.1 mm 5 mps 756 mmHg 65%
    14:00 +33°C° 0.1 mm 5 mps 756 mmHg 66%
    15:00 +33°C° 0.1 mm 5 mps 755 mmHg 68%
    16:00 +32°C° 0.2 mm 5 mps 756 mmHg 74%
    17:00 +30°C° 0.2 mm 5 mps 756 mmHg 81%
    18:00 +28°C° 0.2 mm 4 mps 757 mmHg 87%
    19:00 +28°C° 0.3 mm 4 mps 757 mmHg 89%
    20:00 +28°C° 0.3 mm 4 mps 758 mmHg 91%
    21:00 +27°C° 0.3 mm 4 mps 758 mmHg 93%
    22:00 +27°C° 0.4 mm 4 mps 758 mmHg 93%
    23:00 +27°C° 0.4 mm 3 mps 757 mmHg 93%

    28 September, Friday

    Time Temperature Precipitation Wind Pressure Humidity
    00:00 +27°C° 0.4 mm 3 mps 757 mmHg 94%
    01:00 +27°C° 0.7 mm 3 mps 757 mmHg 94%
    02:00 +27°C° 0.7 mm 3 mps 756 mmHg 94%
    03:00 +27°C° 0.7 mm 3 mps 756 mmHg 95%
    04:00 +27°C° 2.5 mm 4 mps 757 mmHg 95%
    05:00 +27°C° 2.5 mm 4 mps 757 mmHg 95%
    06:00 +27°C° 2.5 mm 4 mps 757 mmHg 95%
    07:00 +28°C° 2.1 mm 4 mps 758 mmHg 93%
    08:00 +29°C° 2.1 mm 4 mps 758 mmHg 91%
    09:00 +30°C° 2.1 mm 5 mps 759 mmHg 89%
    10:00 +30°C° 1.6 mm 5 mps 758 mmHg 88%
    11:00 +30°C° 1.6 mm 5 mps 758 mmHg 88%
    12:00 +30°C° 1.6 mm 5 mps 757 mmHg 88%
    13:00 +30°C° 2 mm 5 mps 757 mmHg 89%
    14:00 +29°C° 2 mm 5 mps 756 mmHg 89%
    15:00 +29°C° 2 mm 5 mps 756 mmHg 90%
    16:00 +28°C° 2.2 mm 5 mps 756 mmHg 91%
    17:00 +28°C° 2.2 mm 5 mps 757 mmHg 91%
    18:00 +28°C° 2.2 mm 5 mps 757 mmHg 92%
    19:00 +28°C° 0.6 mm 5 mps 758 mmHg 92%
    20:00 +27°C° 0.6 mm 4 mps 758 mmHg 93%
    21:00 +27°C° 0.6 mm 4 mps 758 mmHg 93%
    22:00 +27°C° 0.7 mm 4 mps 758 mmHg 93%
    23:00 +27°C° 0.7 mm 4 mps 758 mmHg 93%

    29 September, Saturday

    Time Temperature Precipitation Wind Pressure Humidity
    00:00 +27°C° 0.7 mm 4 mps 757 mmHg 93%
    01:00 +27°C° 0.4 mm 4 mps 757 mmHg 94%
    02:00 +27°C° 0.4 mm 4 mps 757 mmHg 94%
    03:00 +27°C° 0.4 mm 4 mps 757 mmHg 94%
    04:00 +27°C° 0.7 mm 4 mps 757 mmHg 94%
    05:00 +27°C° 0.7 mm 4 mps 757 mmHg 94%
    06:00 +27°C° 0.7 mm 4 mps 758 mmHg 94%
    07:00 +28°C° 0.4 mm 4 mps 758 mmHg 91%
    08:00 +29°C° 0.4 mm 4 mps 758 mmHg 87%
    09:00 +30°C° 0.4 mm 4 mps 759 mmHg 83%
    10:00 +32°C° 1.1 mm 4 mps 758 mmHg 82%
    11:00 +32°C° 1.1 mm 4 mps 758 mmHg 80%
    12:00 +32°C° 1.1 mm 4 mps 758 mmHg 79%
    13:00 +32°C° 0.7 mm 4 mps 757 mmHg 79%
    14:00 +32°C° 0.7 mm 4 mps 757 mmHg 79%
    15:00 +32°C° 0.7 mm 4 mps 756 mmHg 80%
    16:00 +30°C° 0.3 mm 3 mps 757 mmHg 82%
    17:00 +29°C° 0.3 mm 3 mps 757 mmHg 85%
    18:00 +28°C° 0.3 mm 3 mps 757 mmHg 88%
    19:00 +28°C° 0.3 mm 3 mps 758 mmHg 89%
    20:00 +28°C° 0.3 mm 3 mps 758 mmHg 90%
    21:00 +27°C° 0.3 mm 2 mps 758 mmHg 92%
    22:00 +27°C° 0.4 mm 2 mps 758 mmHg 92%
    23:00 +27°C° 0.4 mm 2 mps 758 mmHg 93%
    Show more